Accueil
METAR-TAF:

METAR-TAF

Aéroports :

Base aérienne de Nörvenich

Nörvenich, Allemagne

latitude: 50-50N, longitude: 006-40E, altitude: 118 m

Observation

Le bulletin a été fait il y a 1 heure et 5 minutes, à 01:20 UTC
Vent calme
Température 15°C
Humidité 82%
Pression 1023 hPa
Visibilité: 6000 m

METAR: ETNN 190120Z AUTO 00000KT 6000 // ////// 15/12 Q1023 ///

Heure: 04:25 (02:25 UTC)


TAF: absent

Observations et prévisions météorologiques de plus de 4000 aéroports (messages METAR et TAF).

Les stations disponibles sont représentées par des disques jaunes et rouges sur la carte.

Passer la souris dessus pour voir le nom de la station.

Cliquer dessus pour voir les observations et prévisions météorologiques.

Pour changer de carte: cliquez sur les boutons verts avec une croix noire pour zoomer, sur le bouton vert avec un tiret pour effectuer un zoom arrière, ou sur les flèches vertes pour les cartes adjacentes.


METAR-TAF: